"Period start","avg(HW err(1)/warn(2) (#))","avg(Visibility (m))","avg(Weather code (#))","avg(Precip intensity (mm/h))","min(HW err(1)/warn(2) (#))","max(HW err(1)/warn(2) (#))","std(HW err(1)/warn(2) (#))","med(HW err(1)/warn(2) (#))","min(Visibility (m))","max(Visibility (m))","std(Visibility (m))","med(Visibility (m))","min(Weather code (#))","max(Weather code (#))","std(Weather code (#))","med(Weather code (#))","min(Precip intensity (mm/h))","max(Precip intensity (mm/h))","std(Precip intensity (mm/h))","med(Precip intensity (mm/h))"
2014-12-01 00:00:00,2,4632,77,0.04,2,2,0,2,3801,5529,465,4572,77,77,0,77,0.00,0.05,0.02,0.05
2014-12-01 00:10:00,2,6266,77,0.04,2,2,0,2,4659,7493,978,6338,77,77,0,77,0.00,0.10,0.03,0.05
2014-12-01 00:20:00,2,7469,77,0.08,2,2,0,2,6663,8580,604,7383,77,77,0,77,0.00,0.15,0.05,0.10
2014-12-01 00:30:00,2,6729,77,0.09,2,2,0,2,6131,7345,394,6850,77,77,0,77,0.05,0.15,0.03,0.10
2014-12-01 00:40:00,2,6694,77,0.10,2,2,0,2,5649,8377,801,6655,77,77,0,77,0.05,0.20,0.05,0.08
2014-12-01 00:50:00,2,6120,73,0.07,2,2,0,2,5052,6684,499,6230,71,77,3,71,0.05,0.15,0.03,0.05
2014-12-01 01:00:00,2,6356,77,0.06,2,2,0,2,5644,6923,315,6338,77,77,0,77,0.00,0.15,0.03,0.05
2014-12-01 01:10:00,2,7458,77,0.03,2,2,0,2,5587,8599,1090,7676,77,77,0,77,0.00,0.05,0.03,0.03
2014-12-01 01:20:00,2,7926,77,0.04,2,2,0,2,7081,8357,391,8027,77,77,0,77,0.00,0.05,0.02,0.05
2014-12-01 01:30:00,2,7026,74,0.07,2,2,0,2,5915,8570,619,6910,71,77,3,74,0.05,0.15,0.03,0.05
2014-12-01 01:40:00,2,7316,77,0.05,2,2,0,2,6666,8290,468,7295,77,77,0,77,0.00,0.10,0.02,0.05
2014-12-01 01:50:00,2,6654,73,0.07,2,2,0,2,5894,7360,473,6709,71,77,3,71,0.00,0.15,0.04,0.08
2014-12-01 02:00:00,2,8367,76,0.04,2,2,0,2,7210,9466,684,8352,71,77,2,77,0.00,0.10,0.03,0.05
2014-12-01 02:10:00,2,8836,77,0.04,2,2,0,2,7321,10998,1130,8464,77,77,0,77,0.00,0.10,0.03,0.05
2014-12-01 02:20:00,2,8780,74,0.06,2,2,0,2,6917,10935,1377,8498,71,78,3,74,0.00,0.15,0.04,0.05
2014-12-01 02:30:00,2,9439,75,0.11,2,2,0,2,7445,12167,1523,9204,71,77,3,77,0.00,0.20,0.08,0.10
2014-12-01 02:40:00,2,6117,71,0.26,2,2,0,2,4618,8337,1010,5895,71,71,0,71,0.05,0.55,0.14,0.25
2014-12-01 02:50:00,2,7973,71,0.09,2,2,0,2,6710,8706,667,8160,71,71,0,71,0.00,0.20,0.06,0.08
2014-12-01 03:00:00,2,6780,74,0.03,2,2,0,2,6045,7179,383,6916,71,77,3,74,0.00,0.10,0.03,0.00
2014-12-01 03:10:00,2,6979,77,0.04,2,2,0,2,6161,7406,308,7024,77,77,0,77,0.00,0.10,0.03,0.05
2014-12-01 03:20:00,2,7477,76,0.03,2,2,0,2,6770,8663,606,7268,71,77,2,77,0.00,0.15,0.04,0.03
2014-12-01 03:30:00,2,7623,74,0.02,2,2,0,2,6873,8328,415,7638,71,77,3,74,0.00,0.05,0.02,0.00
2014-12-01 03:40:00,2,6463,77,0.06,2,2,0,2,5571,7480,566,6448,77,77,0,77,0.00,0.20,0.05,0.05
2014-12-01 03:50:00,2,5887,75,0.10,2,2,0,2,5179,6694,422,5856,71,77,3,77,0.05,0.15,0.03,0.10
2014-12-01 04:00:00,2,6586,76,0.13,2,2,0,2,5831,7404,456,6534,71,77,2,77,0.05,0.45,0.11,0.10
2014-12-01 04:10:00,2,6079,73,0.14,2,2,0,2,4902,7022,709,6122,71,77,3,71,0.10,0.25,0.05,0.12
2014-12-01 04:20:00,2,5373,72,0.30,2,2,0,2,3898,6420,808,5530,71,77,2,71,0.10,0.55,0.13,0.28
2014-12-01 04:30:00,2,7226,73,0.14,2,2,0,2,5977,9175,1033,6972,71,77,3,71,0.05,0.30,0.08,0.15
2014-12-01 04:40:00,2,9051,77,0.08,2,2,0,2,8051,10003,577,9142,77,77,0,77,0.05,0.15,0.03,0.08
2014-12-01 04:50:00,2,7583,71,0.24,2,2,0,2,4531,9010,1274,7730,71,71,0,71,0.10,0.70,0.19,0.15
2014-12-01 05:00:00,2,6852,71,0.29,2,2,0,2,4222,9412,1500,7182,71,71,0,71,0.05,1.25,0.34,0.15
2014-12-01 05:10:00,2,7696,73,0.20,2,2,0,2,4934,9893,1890,7844,71,77,3,71,0.05,0.50,0.14,0.17
2014-12-01 05:20:00,2,6033,71,0.30,2,2,0,2,4699,7335,835,5866,71,71,0,71,0.05,0.55,0.19,0.28
2014-12-01 05:30:00,2,9702,71,0.08,2,2,0,2,8111,10788,746,9797,71,71,0,71,0.00,0.30,0.08,0.05
2014-12-01 05:40:00,2,8431,74,0.07,2,2,0,2,7612,9178,592,8510,71,77,3,74,0.00,0.15,0.05,0.05
2014-12-01 05:50:00,2,9330,77,0.03,2,2,0,2,8666,10180,421,9238,77,77,0,77,0.00,0.05,0.03,0.03
2014-12-01 06:00:00,2,7325,76,0.11,2,2,0,2,6282,9265,900,7064,71,77,2,77,0.00,0.35,0.09,0.08
2014-12-01 06:10:00,2,7171,73,0.12,2,2,0,2,5635,8021,702,7230,71,77,3,71,0.05,0.50,0.13,0.08
2014-12-01 06:20:00,2,4220,72,0.78,2,2,0,2,3352,5226,514,4144,71,77,2,71,0.40,1.50,0.31,0.68
2014-12-01 06:30:00,2,3965,71,0.93,2,2,0,2,3296,4800,534,3786,71,71,0,71,0.45,1.70,0.41,0.78
2014-12-01 06:40:00,2,2344,71,3.20,2,2,0,2,1903,3619,497,2216,71,71,0,71,1.65,4.60,0.85,3.42
2014-12-01 06:50:00,2,3298,71,1.94,2,2,0,2,2675,4042,411,3342,71,71,0,71,1.10,2.25,0.35,2.08
2014-12-01 07:00:00,2,2946,71,2.40,2,2,0,2,2305,3889,567,2696,71,71,0,71,1.30,3.20,0.64,2.58
2014-12-01 07:10:00,2,3286,71,1.74,2,2,0,2,2705,4269,519,3146,71,71,0,71,1.00,2.55,0.46,1.88
2014-12-01 07:20:00,2,3826,71,1.43,2,2,0,2,3166,4990,512,3704,71,71,0,71,0.90,1.90,0.35,1.35
2014-12-01 07:30:00,2,6287,71,0.49,2,2,0,2,5083,7619,681,6122,71,71,0,71,0.25,1.00,0.22,0.40
2014-12-01 07:40:00,2,2808,71,2.07,2,2,0,2,1919,4932,866,2442,71,71,0,71,0.80,3.90,0.85,1.97
2014-12-01 07:50:00,2,3285,71,1.71,2,2,0,2,2304,4720,600,3164,71,71,0,71,1.00,2.60,0.49,1.70
2014-12-01 08:00:00,2,6006,71,0.82,2,2,0,2,4736,7129,792,5890,71,71,0,71,0.50,1.15,0.21,0.88
2014-12-01 08:10:00,2,5742,71,1.09,2,2,0,2,3375,8189,1262,5607,71,71,0,71,0.50,2.50,0.54,1.02
2014-12-01 08:20:00,2,5723,71,1.18,2,2,0,2,4198,7880,1329,5828,71,71,0,71,0.65,1.65,0.33,1.25
2014-12-01 08:30:00,2,3362,71,1.88,2,2,0,2,2602,4494,530,3282,71,71,0,71,0.95,2.85,0.47,1.88
2014-12-01 08:40:00,2,5207,71,1.10,2,2,0,2,3611,7680,1247,5101,71,71,0,71,0.70,1.60,0.32,1.02
2014-12-01 08:50:00,2,3203,71,1.88,2,2,0,2,2373,6866,1310,2774,71,71,0,71,0.40,3.10,0.79,1.65
2014-12-01 09:00:00,2,4316,71,1.18,2,2,0,2,2947,6570,1210,4060,71,71,0,71,0.50,1.80,0.44,1.10
2014-12-01 09:10:00,2,3006,71,1.72,2,2,0,2,2776,3409,217,2924,71,71,0,71,1.10,2.30,0.33,1.65
2014-12-01 09:20:00,2,2949,71,2.08,2,2,0,2,2488,3474,357,2980,71,71,0,71,1.55,2.65,0.40,2.10
2014-12-01 09:30:00,2,4791,71,1.33,2,2,0,2,2881,6637,1379,4864,71,71,0,71,0.40,3.05,0.85,1.08
2014-12-01 09:40:00,2,8073,71,0.39,2,2,0,2,6629,9001,742,8370,71,71,0,71,0.10,1.05,0.26,0.30
2014-12-01 09:50:00,2,9151,71,0.30,2,2,0,2,7249,10620,887,9346,71,71,0,71,0.05,0.55,0.16,0.33
2014-12-01 10:00:00,2,5255,71,1.27,2,2,0,2,3460,6902,1073,5428,71,71,0,71,0.65,2.50,0.52,1.20
2014-12-01 10:10:00,2,4732,71,1.69,2,2,0,2,3911,5833,661,4758,71,71,0,71,1.05,3.20,0.59,1.65
2014-12-01 10:20:00,2,5743,71,1.21,2,2,0,2,4202,8051,960,5600,71,71,0,71,0.55,1.95,0.40,1.18
2014-12-01 10:30:00,2,7704,71,0.77,2,2,0,2,5580,8771,1077,7884,71,71,0,71,0.25,1.55,0.37,0.70
2014-12-01 10:40:00,2,8814,71,0.45,2,2,0,2,6335,10287,1004,8887,71,71,0,71,0.05,0.95,0.27,0.38
2014-12-01 10:50:00,2,8582,71,0.60,2,2,0,2,5212,11946,2371,8770,71,71,0,71,0.10,1.85,0.52,0.45
2014-12-01 11:00:00,2,3861,71,2.14,2,2,0,2,2905,5898,871,3620,71,71,0,71,0.95,3.20,0.65,2.30
2014-12-01 11:10:00,2,3092,71,2.71,2,2,0,2,2841,3256,140,3105,71,71,0,71,1.90,3.60,0.59,2.53
2014-12-01 11:20:00,2,3271,71,1.89,2,2,0,2,2270,4342,654,3248,71,71,0,71,0.70,3.35,0.70,1.78
2014-12-01 11:30:00,2,4185,71,1.03,2,2,0,2,3160,4806,489,4243,71,71,0,71,0.70,1.55,0.25,1.00
2014-12-01 11:40:00,2,4446,71,0.91,2,2,0,2,3901,5518,459,4360,71,71,0,71,0.60,1.30,0.23,0.92
2014-12-01 11:50:00,2,3483,71,1.20,2,2,0,2,3122,4036,293,3399,71,71,0,71,0.60,1.85,0.36,1.23
2014-12-01 12:00:00,2,4657,71,0.62,2,2,0,2,3785,5521,596,4542,71,71,0,71,0.20,1.25,0.31,0.50
2014-12-01 12:10:00,2,4370,71,0.57,2,2,0,2,3702,5588,682,4030,71,71,0,71,0.20,1.00,0.29,0.57
2014-12-01 12:20:00,2,3808,71,0.97,2,2,0,2,3122,5185,706,3560,71,71,0,71,0.40,1.70,0.39,0.88
2014-12-01 12:30:00,2,3369,71,1.23,2,2,0,2,2639,3948,356,3394,71,71,0,71,0.70,1.95,0.41,1.02
2014-12-01 12:40:00,2,6398,71,0.68,2,2,0,2,3493,8268,1782,7169,71,71,0,71,0.05,2.35,0.62,0.50
2014-12-01 12:50:00,2,7684,71,0.27,2,2,0,2,6631,9055,755,7415,71,71,0,71,0.10,0.45,0.11,0.28
2014-12-01 13:00:00,2,8872,71,0.21,2,2,0,2,7686,10102,682,8843,71,71,0,71,0.05,0.55,0.17,0.15
2014-12-01 13:10:00,2,14436,71,0.02,2,2,0,2,10101,18228,3037,14872,71,71,0,71,0.00,0.10,0.03,0.00
2014-12-01 13:20:00,2,15454,71,0.08,2,2,0,2,12185,18929,2327,15735,71,71,0,71,0.00,0.30,0.12,0.00
2014-12-01 13:30:00,2,18664,36,0.00,2,2,0,2,15567,21667,1823,18689,0,77,36,36,0.00,0.00,0.00,0.00
2014-12-01 13:40:00,2,14423,44,0.02,2,2,0,2,9137,18707,2452,14320,0,71,31,56,0.00,0.05,0.02,0.00
2014-12-01 13:50:00,2,10075,71,0.29,2,2,0,2,8500,12129,1164,10002,71,71,0,71,0.05,1.00,0.28,0.17
2014-12-01 14:00:00,2,9996,71,0.23,2,2,0,2,7980,11496,1075,10144,71,71,0,71,0.05,0.50,0.13,0.23
2014-12-01 14:10:00,2,10148,71,0.33,2,2,0,2,4500,13899,2558,10442,71,71,0,71,0.05,0.65,0.21,0.30
2014-12-01 14:20:00,2,9717,71,0.38,2,2,0,2,4533,18141,4698,7782,71,71,0,71,0.00,0.90,0.34,0.28
2014-12-01 14:30:00,2,19007,71,0.01,2,2,0,2,17091,21092,1303,18546,71,71,0,71,0.00,0.05,0.02,0.00
2014-12-01 14:40:00,2,16752,43,0.02,2,2,0,2,13098,19631,1942,16676,0,77,35,71,0.00,0.10,0.03,0.00
2014-12-01 14:50:00,2,13264,71,0.12,2,2,0,2,10765,16571,1942,12828,71,71,0,71,0.00,0.35,0.13,0.08
2014-12-01 15:00:00,2,12724,71,0.15,2,2,0,2,10144,14645,1362,13108,71,71,0,71,0.00,0.45,0.13,0.12
2014-12-01 15:10:00,2,14959,71,0.12,2,2,0,2,10754,19119,2430,14445,71,71,0,71,0.00,0.40,0.14,0.05
2014-12-01 15:20:00,2,10964,71,0.20,2,2,0,2,9755,12000,732,11182,71,71,0,71,0.05,0.40,0.13,0.20
2014-12-01 15:30:00,2,9481,71,0.46,2,2,0,2,8234,10752,794,9295,71,71,0,71,0.10,1.10,0.33,0.38
2014-12-01 15:40:00,2,9816,71,0.37,2,2,0,2,8376,10809,775,9780,71,71,0,71,0.05,0.85,0.27,0.25
2014-12-01 15:50:00,2,9674,71,0.30,2,2,0,2,8050,10687,868,9968,71,71,0,71,0.10,0.70,0.23,0.20
2014-12-01 16:00:00,2,15773,71,0.14,2,2,0,2,9254,23792,5087,13850,71,71,0,71,0.00,0.45,0.17,0.05
2014-12-01 16:10:00,2,15211,71,0.10,2,2,0,2,11719,20317,3025,14046,71,71,0,71,0.00,0.20,0.07,0.10
2014-12-01 16:20:00,2,27546,69,0.00,2,2,0,2,22353,32838,3378,27408,0,77,23,77,0.00,0.00,0.00,0.00
2014-12-01 16:30:00,2,28168,0,0.00,2,2,0,2,25146,34296,3391,26720,0,0,0,0,0.00,0.00,0.00,0.00
2014-12-01 16:40:00,2,28290,0,0.00,2,2,0,2,25467,31197,2174,28318,0,0,0,0,0.00,0.00,0.00,0.00
2014-12-01 16:50:00,2,27510,0,0.00,2,2,0,2,24998,31507,2005,26844,0,0,0,0,0.00,0.00,0.00,0.00
2014-12-01 17:00:00,2,23068,0,0.00,2,2,0,2,17336,28240,3558,23966,0,0,0,0,0.00,0.00,0.00,0.00
2014-12-01 17:10:00,2,11911,0,0.00,2,2,0,2,7880,16688,3042,11096,0,0,0,0,0.00,0.00,0.00,0.00
2014-12-01 17:20:00,2,8865,3,0.00,2,2,0,2,7634,9963,711,8860,0,10,5,0,0.00,0.00,0.00,0.00
2014-12-01 17:30:00,2,9959,10,0.00,2,2,0,2,8629,11688,1061,9837,10,10,0,10,0.00,0.00,0.00,0.00
2014-12-01 17:40:00,2,11025,6,0.00,2,2,0,2,10351,11824,515,11132,0,10,5,10,0.00,0.00,0.00,0.00
2014-12-01 17:50:00,2,12224,0,0.00,2,2,0,2,11246,13475,705,12265,0,0,0,0,0.00,0.00,0.00,0.00
2014-12-01 18:00:00,2,13556,0,0.00,2,2,0,2,12551,14598,652,13577,0,0,0,0,0.00,0.00,0.00,0.00
2014-12-01 18:10:00,2,12492,0,0.00,2,2,0,2,10900,13951,1126,12442,0,0,0,0,0.00,0.00,0.00,0.00
2014-12-01 18:20:00,2,11250,0,0.00,2,2,0,2,9569,13399,1164,10936,0,0,0,0,0.00,0.00,0.00,0.00
2014-12-01 18:30:00,2,17136,0,0.00,2,2,0,2,12991,19588,2348,17880,0,0,0,0,0.00,0.00,0.00,0.00
2014-12-01 18:40:00,2,19284,0,0.00,2,2,0,2,17631,21146,880,19334,0,0,0,0,0.00,0.00,0.00,0.00
2014-12-01 18:50:00,2,18564,0,0.00,2,2,0,2,16411,20376,1309,18755,0,0,0,0,0.00,0.00,0.00,0.00
2014-12-01 19:00:00,2,15375,0,0.00,2,2,0,2,12851,18368,1670,14944,0,0,0,0,0.00,0.00,0.00,0.00
2014-12-01 19:10:00,2,11992,22,0.00,2,2,0,2,11189,12426,377,12120,0,78,34,0,0.00,0.00,0.00,0.00
2014-12-01 19:20:00,2,13863,16,0.00,2,2,0,2,11984,16106,1275,13561,0,78,31,0,0.00,0.00,0.00,0.00
2014-12-01 19:30:00,2,16886,0,0.00,2,2,0,2,14362,19042,1394,16774,0,0,0,0,0.00,0.00,0.00,0.00
2014-12-01 19:40:00,2,15028,0,0.00,2,2,0,2,12130,19773,2737,14049,0,0,0,0,0.00,0.00,0.00,0.00
2014-12-01 19:50:00,2,14316,0,0.00,2,2,0,2,11595,17492,1985,14522,0,0,0,0,0.00,0.00,0.00,0.00
2014-12-01 20:00:00,2,9486,0,0.00,2,2,0,2,8067,10595,746,9604,0,0,0,0,0.00,0.00,0.00,0.00
2014-12-01 20:10:00,2,9942,0,0.00,2,2,0,2,8564,11666,982,9926,0,0,0,0,0.00,0.00,0.00,0.00
2014-12-01 20:20:00,2,10613,0,0.00,2,2,0,2,7711,13361,2031,10888,0,0,0,0,0.00,0.00,0.00,0.00
2014-12-01 20:30:00,2,7583,7,0.00,2,2,0,2,5131,8514,907,7934,0,10,5,10,0.00,0.00,0.00,0.00
2014-12-01 20:40:00,2,3076,10,0.00,2,2,0,2,1295,6863,1780,2682,10,10,0,10,0.00,0.00,0.00,0.00
2014-12-01 20:50:00,2,9198,10,0.00,2,2,0,2,7865,10041,633,9215,10,10,0,10,0.00,0.00,0.00,0.00
2014-12-01 21:00:00,2,12786,8,0.00,2,2,0,2,10505,15902,1424,12605,0,10,4,10,0.00,0.00,0.00,0.00
2014-12-01 21:10:00,2,13820,0,0.00,2,2,0,2,12954,15374,730,13641,0,0,0,0,0.00,0.00,0.00,0.00
2014-12-01 21:20:00,2,19738,0,0.00,2,2,0,2,14919,24064,2210,20028,0,0,0,0,0.00,0.00,0.00,0.00
2014-12-01 21:30:00,2,37473,0,0.00,2,2,0,2,28517,44844,4594,38196,0,0,0,0,0.00,0.00,0.00,0.00
2014-12-01 21:40:00,2,40619,0,0.00,2,2,0,2,32615,46039,3768,40872,0,0,0,0,0.00,0.00,0.00,0.00
2014-12-01 21:50:00,2,39511,0,0.00,2,2,0,2,35361,43037,2215,39005,0,0,0,0,0.00,0.00,0.00,0.00
2014-12-01 22:00:00,2,36838,0,0.00,2,2,0,2,32244,41182,3185,36520,0,0,0,0,0.00,0.00,0.00,0.00
2014-12-01 22:10:00,2,41658,0,0.00,2,2,0,2,36712,46381,3321,41526,0,0,0,0,0.00,0.00,0.00,0.00
2014-12-01 22:20:00,2,44694,0,0.00,2,2,0,2,40583,48906,2518,44787,0,0,0,0,0.00,0.00,0.00,0.00
2014-12-01 22:30:00,2,47302,0,0.00,2,2,0,2,45028,50000,1427,47040,0,0,0,0,0.00,0.00,0.00,0.00
2014-12-01 22:40:00,2,44790,0,0.00,2,2,0,2,36099,49740,3820,45252,0,0,0,0,0.00,0.00,0.00,0.00
2014-12-01 22:50:00,2,44605,0,0.00,2,2,0,2,39018,48049,2680,44995,0,0,0,0,0.00,0.00,0.00,0.00
2014-12-01 23:00:00,2,40760,0,0.00,2,2,0,2,38390,44614,2207,40059,0,0,0,0,0.00,0.00,0.00,0.00
2014-12-01 23:10:00,2,36024,0,0.00,2,2,0,2,30153,43471,3684,37162,0,0,0,0,0.00,0.00,0.00,0.00
2014-12-01 23:20:00,2,36146,0,0.00,2,2,0,2,31997,40235,2528,35835,0,0,0,0,0.00,0.00,0.00,0.00
2014-12-01 23:30:00,2,33633,0,0.00,2,2,0,2,28434,39497,3252,32978,0,0,0,0,0.00,0.00,0.00,0.00
2014-12-01 23:40:00,2,36831,0,0.00,2,2,0,2,33514,39978,2353,36984,0,0,0,0,0.00,0.00,0.00,0.00
2014-12-01 23:50:00,2,46630,0,0.00,2,2,0,2,41565,50000,2653,46089,0,0,0,0,0.00,0.00,0.00,0.00
